Dewpoint
48 48 48 47 48 50 50 50 49 49 49 49 48 47 47 47 48 49 49 50 50 50 49 49 49 49 49 49 49 49 49 40 41 42 44 47 54 53 51 51 50 51 52 44 46 47 47 47 44 39 40 40 39 42 42 45 49 47 43 43 41 41 40 40 39 40 40 38 39 41 43 44 42 40 37 35 30 34 32 25 17 45 52 54 57 59 60 60
48 48 48 49 48 48 48 48 48 48 48 48 47 47 47 47 48 48 49 49 50 50 50 50 49 48 49 49 48 49 45 40 40 42 45 50 52 51 50 50 49 50 50 43 41 43 44 44 44 39 38 35 42 39 43 40 47 43 41 42 40 42 41 41 40 41 39 39 40 43 45 46 44 44 38 35 35 35 38 36 26 42 46 54 59 59 60 59
48 48 48 48 48 48 48 48 48 48 48 48 48 47 47 48 48 48 48 49 50 50 50 49 48 49 49 49 48 49 42 39 38 37 45 52 51 50 49 48 48 49 43 43 43 42 41 42 40 37 37 32 35 37 40 39 42 40 41 40 41 42 41 41 41 41 41 43 45 47 46 44 48 45 43 38 37 36 33 31 25 24 38 47 52 57 57 58
48 48 49 50 48 47 47 47 48 48 48 48 48 47 48 48 48 48 49 49 50 49 48 48 49 50 49 48 48 45 39 36 34 39 45 51 49 49 48 47 47 49 44 44 43 41 43 43 39 36 35 32 33 41 38 38 39 40 40 39 40 41 39 41 41 41 42 42 45 47 47 44 47 48 47 47 41 37 35 32 33 38 38 40 47 52 55 57
47 47 48 48 48 48 47 47 47 48 49 48 47 49 49 49 48 49 50 50 48 47 48 49 49 49 49 48 48 41 37 25 31 43 46 50 48 48 46 46 46 44 41 42 39 41 42 40 38 35 34 30 35 35 35 36 41 39 38 40 39 39 39 40 41 43 42 43 44 46 45 45 49 44 41 44 43 38 39 33 34 39 42 39 45 52 53 58
47 48 49 48 48 47 47 47 49 48 48 48 48 48 49 49 49 49 50 50 47 47 48 49 50 49 48 47 43 41 26 -11 33 40 51 48 46 45 45 45 46 41 38 36 36 40 41 38 38 33 30 30 31 30 32 33 39 31 32 36 38 39 37 38 41 42 42 43 43 43 46 46 44 44 42 40 39 44 43 43 42 41 39 50 51 51 52 55
48 48 47 47 47 47 47 47 47 48 48 47 48 49 49 49 49 49 49 50 46 46 48 48 50 49 48 52 41 37 27 25 40 41 48 45 42 42 43 50 49 35 36 33 34 39 38 37 36 34 31 30 28 29 31 33 38 33 26 31 33 35 36 37 35 34 41 41 41 43 46 44 44 42 43 39 40 42 40 41 48 49 45 45 48 50 52 55
49 47 47 46 46 47 47 47 47 47 47 48 48 49 49 49 49 48 49 49 46 45 47 48 49 49 49 40 39 34 32 32 36 43 50 45 37 39 46 36 39 38 34 33 33 33 38 36 35 35 31 28 31 28 30 32 35 33 30 29 24 29 32 35 34 34 33 35 42 43 42 42 44 43 43 42 41 41 41 42 48 50 48 44 43 48 50 51
46 47 46 47 47 47 47 46 46 47 47 47 48 48 48 49 49 49 49 49 47 44 45 48 49 48 48 40 34 21 21 36 41 41 45 34 35 38 38 35 40 35 35 34 34 34 35 34 36 35 30 31 34 31 32 29 26 32 30 30 26 22 24 29 31 30 30 26 32 40 41 42 43 45 41 42 42 43 44 43 49 46 46 44 45 45 46 48
48 48 48 47 46 46 46 46 46 47 47 47 48 48 49 49 48 49 48 48 47 42 44 46 48 47 42 38 29 12 24 39 39 41 41 34 38 39 38 37 38 37 33 34 35 33 35 35 36 38 36 33 34 30 32 29 26 29 31 30 27 24 27 31 26 26 29 25 25 31 36 39 41 40 38 40 40 42 43 43 45 47 45 47 44 43 43 44
47 48 47 46 46 46 46 46 46 46 47 47 48 48 49 49 48 48 48 46 45 41 44 45 46 45 40 35 20 10 34 35 37 38 36 36 38 38 38 40 39 39 38 38 37 38 38 39 39 38 32 29 32 31 31 30 32 28 25 27 26 28 29 31 29 27 29 25 25 25 28 32 33 38 37 37 39 40 40 42 44 46 48 49 47 46 42 41
46 47 45 45 45 46 46 47 46 46 47 47 47 49 49 48 48 47 46 44 43 41 42 45 47 43 40 35 28 25 34 34 38 34 35 36 38 39 40 40 40 40 38 36 38 39 39 39 39 35 29 35 28 31 30 34 31 29 25 23 25 25 24 24 24 29 30 27 28 29 24 20 25 26 33 39 40 39 40 40 42 45 47 48 49 49 48 39
46 46 46 45 45 45 45 45 45 46 46 46 47 48 48 48 47 47 44 41 40 41 41 44 50 44 38 28 34 40 37 34 34 33 34 36 36 38 41 40 41 40 39 38 37 39 40 38 37 32 36 34 33 24 29 32 32 31 27 25 25 25 23 23 28 27 26 25 30 26 14 15 17 22 33 35 39 38 38 38 39 42 46 47 48 48 49 48
47 46 46 45 45 45 45 45 45 46 46 47 47 48 48 47 47 46 42 41 42 39 40 43 42 41 35 30 36 39 42 40 34 33 32 37 34 37 39 41 41 40 39 37 37 38 37 39 37 34 37 34 31 36 31 30 31 25 28 25 22 20 19 22 23 26 23 29 30 27 15 14 20 23 30 32 36 37 34 35 37 40 42 44 45 47 47 46
46 47 45 45 45 46 46 45 46 46 47 47 47 47 47 46 46 43 39 39 38 40 41 49 41 38 33 36 39 44 49 37 36 33 35 34 35 37 37 38 39 40 38 38 37 39 38 38 35 32 27 35 35 28 26 26 27 27 23 22 24 20 19 22 24 22 19 27 29 24 16 15 16 18 30 30 30 35 32 33 34 37 40 41 42 41 42 44
46 45 45 45 45 45 46 45 46 46 47 48 46 45 44 46 44 40 39 38 39 40 41 38 40 38 32 28 38 45 38 33 35 35 36 36 36 35 36 37 38 39 38 37 41 40 38 37 31 31 30 31 28 25 23 22 22 22 23 21 21 21 20 22 22 23 20 27 27 20 15 18 14 17 21 31 30 31 28 28 31 33 35 39 39 38 38 41
45 46 45 45 45 45 45 45 45 46 47 47 44 43 44 44 42 37 40 40 35 39 41 39 40 40 25 32 33 31 33 35 36 35 35 36 36 36 37 36 35 36 37 38 39 36 36 33 33 30 29 27 26 23 20 20 21 19 22 22 22 21 22 20 23 24 25 24 20 22 17 15 20 23 28 34 31 29 24 23 27 29 30 34 36 34 34 37
46 45 45 45 45 44 45 45 45 46 47 44 42 43 40 41 41 47 46 36 37 39 39 41 38 27 17 31 27 28 32 34 34 33 34 36 37 37 35 34 35 36 36 34 35 31 34 28 29 26 24 27 25 21 18 14 17 17 18 18 20 22 21 20 18 22 25 21 21 19 19 17 18 22 23 30 35 34 28 25 22 23 25 28 32 33 31 33
46 46 46 45 46 44 45 45 45 46 45 43 42 42 42 36 36 32 31 30 22 16 9 22 20 7 6 28 30 30 32 34 34 29 29 30 34 38 38 37 35 32 30 30 30 31 30 26 28 25 23 26 26 22 17 13 13 13 14 16 17 18 19 20 22 21 21 19 21 20 18 18 18 18 19 21 26 24 25 25 28 26 24 27 29 29 30 31
44 45 45 46 45 45 44 44 44 46 44 39 33 33 31 27 25 21 27 28 12 12 14 15 25 24 22 20 22 31 33 34 27 28 30 33 36 35 34 34 33 32 29 27 29 26 30 21 25 24 20 23 26 25 18 17 18 17 20 16 14 16 17 23 23 25 26 21 19 19 20 19 19 18 18 19 23 22 23 22 24 27 28 28 29 30 29 30
45 44 46 45 44 45 43 44 44 45 44 36 33 31 27 26 21 20 27 28 29 28 26 25 25 23 20 27 28 27 24 25 29 29 32 41 38 34 29 30 29 28 27 27 28 32 29 22 21 23 22 21 24 27 26 26 24 21 20 19 19 21 18 22 21 24 28 22 20 21 21 20 21 22 22 22 22 20 20 20 20 21 25 29 30 31 31 31
45 45 46 45 43 44 43 43 44 44 43 36 33 31 29 30 29 29 28 24 26 27 27 27 27 26 28 28 28 30 26 22 23 29 34 37 33 27 26 26 26 27 27 28 28 26 28 26 25 23 25 26 26 25 25 25 24 23 22 20 19 19 20 21 22 23 25 21 19 20 20 20 21 22 23 23 23 23 22 22 20 20 22 26 28 27 29 27
45 43 44 45 44 44 43 43 44 43 38 36 33 30 31 34 35 34 31 29 26 29 27 26 24 25 25 29 31 29 23 21 18 28 32 35 31 28 28 24 26 26 26 27 25 22 24 27 29 28 26 26 26 25 25 24 24 22 21 20 18 19 17 16 19 22 24 22 20 21 18 21 23 24 24 24 24 25 27 27 25 25 21 22 25 26 27 25
43 44 44 43 43 42 42 43 46 40 38 35 33 33 34 35 34 32 28 23 21 23 26 27 26 27 25 26 31 26 23 22 22 25 36 33 31 29 29 25 25 25 25 26 26 24 22 22 26 28 27 26 25 25 24 24 23 23 22 20 19 18 15 17 16 21 20 22 20 19 19 19 18 20 22 22 24 26 26 26 26 25 28 27 28 29 29 24
44 44 44 43 43 43 42 44 38 38 38 33 34 35 36 35 34 32 27 22 18 22 28 28 28 28 29 31 29 23 27 28 28 31 35 33 31 27 26 28 25 24 24 25 26 25 26 27 27 22 24 26 25 23 19 20 20 19 20 21 20 19 16 17 18 18 15 16 20 20 13 11 14 16 19 21 21 20 20 19 20 20 21 25 26 26 29 32
44 44 43 43 42 43 43 37 34 39 35 32 35 38 37 35 33 32 24 8 6 14 21 15 30 24 31 26 26 25 25 21 27 33 35 34 39 28 28 24 26 24 24 24 25 25 26 26 27 26 24 18 16 14 14 16 13 11 11 19 20 19 16 16 17 16 9 10 17 22 14 9 14 11 16 16 18 20 23 24 21 20 19 20 23 27 29 30
43 43 42 43 42 43 37 34 38 37 31 33 38 39 37 35 34 33 16 0 -9 15 17 26 21 22 27 27 25 25 5 14 29 32 32 36 32 36 26 24 24 23 24 22 17 20 22 25 25 25 24 22 19 15 15 13 11 9 18 20 20 19 18 16 18 17 15 17 19 17 17 10 9 14 15 17 17 18 18 19 22 24 22 20 19 22 28 30
43 43 42 42 42 42 38 38 36 34 33 35 40 39 36 35 34 27 7 -18 -21 18 14 22 23 27 26 27 26 21 17 18 16 28 32 32 33 30 28 24 24 23 23 20 15 13 21 20 24 23 22 22 20 19 17 13 11 13 20 21 18 20 20 18 18 17 15 12 10 14 13 9 6 13 16 16 14 16 17 17 16 20 24 22 20 22 27 30
42 42 43 43 42 42 41 35 35 34 36 39 40 38 38 36 32 13 -6 -16 -15 10 26 23 29 26 24 25 22 22 22 22 16 20 28 28 30 28 25 27 24 22 22 22 18 15 18 19 21 22 20 19 18 16 17 14 10 15 21 22 21 21 20 18 17 17 13 9 9 11 13 5 7 9 11 13 12 14 15 14 13 17 21 24 26 27 28 30
42 43 42 43 41 38 36 37 36 38 40 41 39 36 35 32 21 7 -12 -21 -5 -10 16 19 19 18 23 22 21 22 20 20 18 21 23 25 26 26 24 27 23 20 19 19 21 21 13 26 29 21 19 18 16 17 18 16 14 22 21 17 16 16 14 9 8 11 9 12 13 14 12 9 4 9 12 9 12 9 5 8 21 22 24 26 27 28 30 30
41 41 41 40 37 37 37 35 35 37 39 39 37 35 26 19 4 -9 -15 -3 -10 4 17 18 15 23 21 19 17 20 17 17 15 20 18 23 20 23 23 20 21 12 10 16 19 18 17 20 19 22 26 21 16 15 18 21 21 20 14 12 12 8 9 2 0 7 11 8 11 15 10 10 7 4 13 9 14 14 5 2 11 23 25 26 27 28 29 29
42 41 41 39 39 38 33 31 34 37 39 38 36 29 16 -1 -3 -6 -6 11 -16 4 6 5 15 17 17 18 11 13 17 13 13 15 18 20 18 20 21 16 12 7 6 14 13 12 16 18 20 20 29 23 15 12 14 19 21 19 15 15 12 -4 -0 4 7 5 8 8 10 5 11 8 11 10 10 12 11 12 15 9 15 24 25 26 27 28 28 27
40 41 42 39 38 35 36 37 37 38 38 38 31 20 7 -7 -16 -1 -1 -6 -9 2 6 15 11 15 13 12 11 9 11 11 17 15 15 14 15 19 21 19 16 12 -2 3 11 5 11 10 17 19 20 23 18 12 10 11 19 17 17 14 8 0 -0 -0 -1 -4 0 5 6 4 10 6 7 11 13 10 10 12 13 18 23 24 25 26 26 26 26 25
41 41 37 37 38 37 37 38 38 38 38 37 27 11 7 -6 -3 19 -5 3 -2 6 7 5 8 9 10 15 8 12 11 12 14 15 15 12 15 13 15 19 17 15 7 3 0 7 -1 0 10 16 14 21 20 15 13 12 18 17 17 16 11 4 -1 -2 -3 0 1 2 4 6 4 -1 8 8 14 12 10 8 13 20 24 25 25 26 25 24 23 23
42 39 36 36 35 35 36 37 37 39 36 34 28 14 0 -2 -3 -8 -5 -4 -2 8 6 5 3 6 8 4 4 9 12 4 12 13 14 13 12 10 9 13 18 17 5 3 2 0 4 1 6 17 16 20 19 19 17 14 16 15 13 13 7 7 8 -6 -1 -3 -5 -6 -5 3 5 4 12 14 21 18 15 12 21 22 24 23 23 23 22 21 21 21
39 35 35 34 34 33 34 36 36 38 37 32 21 15 8 4 -7 -5 0 10 11 6 9 12 4 0 3 5 3 5 3 9 7 12 8 13 12 11 12 13 14 18 15 11 -1 -3 1 2 3 12 18 19 18 19 18 15 7 13 18 12 13 14 8 -7 -3 -4 -6 -6 -7 2 9 12 12 9 16 18 18 18 20 21 22 22 21 20 20 19 19 20
35 35 30 31 32 33 33 35 38 37 36 29 21 14 16 11 10 5 19 15 13 14 10 7 2 3 -6 -7 -7 2 6 6 5 8 5 9 7 10 9 11 18 18 19 15 12 6 2 -0 6 10 9 16 19 18 18 17 14 15 11 16 16 14 10 4 -6 -8 -7 -4 -9 3 6 8 5 1 15 17 17 18 19 20 20 20 19 18 18 18 17 18
33 31 33 31 32 33 33 34 37 36 33 27 19 23 20 14 20 16 18 18 19 18 12 8 9 6 4 1 5 5 5 5 5 6 3 8 3 12 10 9 12 17 19 20 12 7 10 5 5 9 9 13 20 19 17 18 20 14 13 15 14 6 5 1 -3 -2 -9 -9 -14 -5 5 7 4 -2 14 15 15 17 17 18 18 17 17 17 16 15 15 15
31 29 25 29 33 34 36 36 36 34 28 22 19 19 21 21 24 22 23 24 21 19 18 17 15 14 14 11 11 5 7 7 9 10 8 9 7 10 10 10 8 12 18 19 17 12 7 3 2 7 9 14 16 16 11 13 16 19 21 16 15 9 7 8 7 -3 -1 -6 -14 -12 -6 -1 7 1 14 14 15 17 16 16 17 16 15 14 13 14 13 13
29 26 25 29 29 35 38 36 31 27 24 17 18 20 25 20 21 22 22 22 19 18 16 16 17 17 18 17 19 15 16 14 14 14 13 11 10 11 8 10 11 11 15 20 18 16 14 4 2 5 8 13 9 14 12 13 12 13 14 6 12 10 11 8 1 5 -1 -13 -6 -14 -10 -2 3 8 13 14 15 17 16 16 16 15 14 13 13 13 13 13
31 26 24 29 35 37 33 29 23 21 22 24 24 19 19 17 20 21 23 24 23 27 22 20 19 17 16 15 15 15 14 15 13 13 11 12 13 10 14 8 10 7 14 15 18 17 10 7 9 6 5 8 12 15 16 13 14 13 14 12 16 14 6 2 3 4 -6 -6 -12 -13 -9 -4 3 11 11 13 16 17 17 16 15 13 13 13 13 13 13 13
27 19 21 35 35 29 26 18 20 22 20 16 15 19 19 21 17 18 18 19 20 20 23 20 19 18 18 17 16 16 15 15 15 14 14 13 13 14 16 13 14 17 18 14 12 14 13 5 -2 8 8 8 12 14 14 13 14 12 14 13 16 15 12 5 1 1 -0 3 -3 -5 -13 -4 5 12 13 12 16 17 17 16 14 13 13 12 13 13 14 13
26 22 31 29 27 26 24 20 23 21 18 19 20 20 20 18 17 18 18 18 16 17 16 16 15 15 16 16 15 15 15 14 14 13 13 15 14 16 16 18 19 20 19 17 17 14 21 5 -8 -0 7 11 11 12 10 8 10 12 10 11 13 15 15 11 7 4 6 -1 1 -3 -5 -0 10 14 12 11 16 17 15 14 17 15 12 12 13 13 12 11
26 25 25 28 29 29 23 14 13 16 19 20 20 19 20 18 17 17 17 17 18 18 17 17 17 20 18 20 18 15 17 10 16 16 14 16 15 17 16 16 18 19 17 18 14 17 6 7 6 3 -3 -5 1 7 7 9 7 3 6 11 11 13 14 9 1 -2 -1 1 5 3 -0 -4 6 15 12 14 15 14 13 13 14 14 12 12 11 11 11 10
26 25 25 27 30 27 17 18 15 13 14 15 15 15 17 18 20 21 19 17 17 16 16 15 16 18 17 18 16 16 16 13 11 16 17 16 13 17 11 12 16 17 20 22 21 19 10 10 7 3 -1 -3 -5 -5 -3 0 5 7 4 6 9 12 13 14 10 6 3 -0 4 -1 -9 5 7 10 9 10 12 12 12 12 12 12 12 10 11 11 10 10
21 14 17 18 24 24 24 26 22 18 16 16 12 13 14 11 12 13 13 13 14 14 16 17 17 18 16 14 13 11 11 13 12 10 13 12 14 17 5 10 12 16 20 23 23 20 13 15 12 11 7 4 6 6 5 13 3 3 2 6 7 9 14 16 10 9 7 5 3 1 4 3 7 7 8 10 11 10 10 11 10 10 11 12 11 12 12 10
20 18 17 15 17 18 12 19 20 20 16 16 10 12 9 10 11 10 10 8 10 11 11 10 10 9 9 9 7 8 10 11 13 11 10 11 14 14 11 12 12 16 20 21 23 16 13 9 9 10 9 9 10 10 9 12 8 8 6 3 5 6 8 11 11 8 10 8 5 6 5 5 7 7 8 9 9 10 10 10 10 10 11 12 12 13 20 12
14 19 21 20 14 11 13 13 18 15 14 13 10 10 8 7 6 6 6 8 8 6 7 8 7 6 8 7 8 6 7 6 6 4 8 9 9 11 10 11 10 18 21 19 23 16 9 7 8 10 8 10 11 11 12 11 8 6 7 7 7 7 4 7 8 9 6 7 4 8 7 5 7 8 10 10 9 9 9 9 9 12 13 14 13 14 15 12
22 17 19 14 11 15 14 15 16 14 12 12 12 10 7 5 4 5 4 5 7 6 8 4 5 6 9 10 8 6 7 3 1 4 3 6 8 8 6 8 11 17 16 15 18 16 8 6 7 8 6 8 9 11 11 10 9 7 2 4 9 9 8 8 5 3 7 4 4 4 4 4 7 9 8 6 7 7 4 4 9 8 8 12 13 14 14 13
15 16 11 18 18 17 15 14 13 11 10 14 9 6 5 5 5 6 6 4 1 5 9 8 6 8 8 8 8 6 5 6 5 4 8 7 7 8 7 7 7 13 13 11 14 16 14 6 9 8 6 6 8 10 11 11 10 8 6 4 8 5 8 9 9 9 5 7 10 7 7 5 10 12 14 12 8 7 5 3 3 3 9 12 10 11 13 13
18 19 18 16 13 15 16 12 10 11 9 10 9 8 9 8 6 8 7 8 8 6 5 5 6 7 6 7 7 6 6 3 4 9 8 8 5 8 6 7 9 7 8 7 12 12 13 8 9 8 5 4 7 9 11 12 11 10 8 7 5 6 5 8 9 11 9 7 10 9 8 8 10 15 16 13 14 12 8 8 7 8 6 11 9 9 10 11
22 24 14 17 11 16 13 11 11 9 6 8 8 7 7 7 9 9 7 10 10 10 8 7 4 5 5 6 5 6 8 9 9 10 11 12 13 13 13 12 12 10 8 8 8 6 9 8 6 5 1 -0 7 6 6 7 6 4 6 8 7 6 7 7 9 11 10 9 9 8 8 9 9 14 13 13 15 16 13 9 11 11 11 10 9 9 10 11